Time,TemperatureF,DewpointF,PressureIn,WindDirection,WindDirectionDegrees,WindSpeedMPH,WindSpeedGustMPH,Humidity,HourlyPrecipIn,Conditions,Clouds,dailyrainin,SoftwareType,DateUTC
2013-04-17 00:00:00,33.0,29.8,30.36,North,360,6.0,12.0,88,0.00,,---,0.00,VWS V14.01,2013-04-17 04:00:00,
2013-04-17 00:05:00,33.0,29.6,30.36,North,360,5.0,12.0,87,0.00,,---,0.00,VWS V14.01,2013-04-17 04:05:00,
2013-04-17 00:10:00,32.9,29.7,30.37,North,360,4.0,12.0,88,0.00,,---,0.00,VWS V14.01,2013-04-17 04:10:00,
2013-04-17 00:15:00,32.8,29.4,30.37,North,360,5.0,12.0,87,0.00,,---,0.00,VWS V14.01,2013-04-17 04:15:00,
2013-04-17 00:20:00,32.8,29.4,30.37,North,360,10.0,12.0,87,0.00,,---,0.00,VWS V14.01,2013-04-17 04:20:00,
2013-04-17 00:25:00,32.8,29.4,30.37,North,360,5.0,12.0,87,0.00,,---,0.00,VWS V14.01,2013-04-17 04:25:00,
2013-04-17 00:30:00,32.8,29.4,30.37,North,360,4.0,12.0,87,0.00,,---,0.00,VWS V14.01,2013-04-17 04:30:00,
2013-04-17 00:35:00,32.8,29.6,30.37,North,360,3.0,13.0,88,0.00,,---,0.00,VWS V14.01,2013-04-17 04:35:00,
2013-04-17 00:40:00,32.8,29.6,30.37,North,360,5.0,13.0,88,0.00,,---,0.00,VWS V14.01,2013-04-17 04:40:00,
2013-04-17 00:45:00,32.8,29.6,30.37,North,360,9.0,13.0,88,0.00,,---,0.00,VWS V14.01,2013-04-17 04:45:00,
2013-04-17 00:50:00,32.8,29.4,30.37,North,360,6.0,14.0,87,0.00,,---,0.00,VWS V14.01,2013-04-17 04:50:00,
2013-04-17 00:55:00,32.8,29.4,30.37,North,360,5.0,14.0,87,0.00,,---,0.00,VWS V14.01,2013-04-17 04:55:00,
2013-04-17 01:00:00,32.8,29.6,30.37,North,360,10.0,14.0,88,0.00,,---,0.00,VWS V14.01,2013-04-17 05:00:00,
2013-04-17 01:05:00,32.8,29.6,30.38,North,360,9.0,14.0,88,0.00,,---,0.00,VWS V14.01,2013-04-17 05:05:00,
2013-04-17 01:10:00,32.8,29.6,30.38,North,360,7.0,14.0,88,0.00,,---,0.00,VWS V14.01,2013-04-17 05:10:00,
2013-04-17 01:15:00,32.8,29.4,30.39,North,360,3.0,14.0,87,0.00,,---,0.00,VWS V14.01,2013-04-17 05:15:00,
2013-04-17 01:20:00,32.7,29.5,30.38,North,360,4.0,14.0,88,0.00,,---,0.00,VWS V14.01,2013-04-17 05:20:00,
2013-04-17 01:25:00,32.7,29.5,30.39,North,360,5.0,14.0,88,0.00,,---,0.00,VWS V14.01,2013-04-17 05:25:00,
2013-04-17 01:30:00,32.6,29.5,30.39,North,360,5.0,14.0,88,0.00,,---,0.00,VWS V14.01,2013-04-17 05:30:00,
2013-04-17 01:35:00,32.6,29.5,30.39,North,360,6.0,14.0,88,0.00,,---,0.00,VWS V14.01,2013-04-17 05:35:00,
2013-04-17 01:40:00,32.6,29.7,30.39,North,360,2.0,14.0,89,0.00,,---,0.00,VWS V14.01,2013-04-17 05:40:00,
2013-04-17 01:45:00,32.6,29.7,30.39,North,360,4.0,14.0,89,0.00,,---,0.00,VWS V14.01,2013-04-17 05:45:00,
2013-04-17 01:50:00,32.6,29.7,30.39,North,360,5.0,14.0,89,0.00,,---,0.00,VWS V14.01,2013-04-17 05:50:00,
2013-04-17 01:55:00,32.7,29.8,30.39,North,360,3.0,14.0,89,0.00,,---,0.00,VWS V14.01,2013-04-17 05:55:00,
2013-04-17 02:00:00,32.7,29.8,30.40,North,360,4.0,14.0,89,0.00,,---,0.00,VWS V14.01,2013-04-17 06:00:00,
2013-04-17 02:05:00,32.7,29.8,30.40,North,360,3.0,6.0,89,0.00,,---,0.00,VWS V14.01,2013-04-17 06:05:00,
2013-04-17 02:10:00,32.7,29.8,30.40,North,360,3.0,6.0,89,0.00,,---,0.00,VWS V14.01,2013-04-17 06:10:00,
2013-04-17 02:15:00,32.7,29.8,30.40,North,360,3.0,6.0,89,0.00,,---,0.00,VWS V14.01,2013-04-17 06:15:00,
2013-04-17 02:20:00,32.6,29.7,30.40,North,360,3.0,6.0,89,0.00,,---,0.00,VWS V14.01,2013-04-17 06:20:00,
2013-04-17 02:25:00,32.6,29.7,30.40,North,360,2.0,6.0,89,0.00,,---,0.00,VWS V14.01,2013-04-17 06:25:00,
2013-04-17 02:30:00,32.5,29.9,30.40,North,360,0.0,6.0,90,0.00,,---,0.00,VWS V14.01,2013-04-17 06:30:00,
2013-04-17 02:35:00,32.4,29.5,30.40,North,360,0.0,6.0,89,0.00,,---,0.00,VWS V14.01,2013-04-17 06:35:00,
2013-04-17 02:40:00,32.3,29.4,30.40,North,360,0.0,6.0,89,0.00,,---,0.00,VWS V14.01,2013-04-17 06:40:00,
2013-04-17 02:45:00,32.2,29.6,30.40,North,360,0.0,6.0,90,0.00,,---,0.00,VWS V14.01,2013-04-17 06:45:00,
2013-04-17 02:49:00,32.1,29.5,30.40,North,360,0.0,6.0,90,0.00,,---,0.00,VWS V14.01,2013-04-17 06:49:00,
2013-04-17 02:54:00,31.9,29.3,30.40,North,360,0.0,6.0,90,0.00,,---,0.00,VWS V14.01,2013-04-17 06:54:00,
2013-04-17 02:59:00,31.6,29.0,30.40,North,360,0.0,6.0,90,0.00,,---,0.00,VWS V14.01,2013-04-17 06:59:00,
2013-04-17 03:04:00,31.6,29.3,30.40,North,360,0.0,6.0,91,0.00,,---,0.00,VWS V14.01,2013-04-17 07:04:00,
2013-04-17 03:09:00,31.9,29.8,30.41,North,360,2.0,6.0,92,0.00,,---,0.00,VWS V14.01,2013-04-17 07:09:00,
2013-04-17 03:14:00,32.2,29.9,30.41,North,360,0.0,6.0,91,0.00,,---,0.00,VWS V14.01,2013-04-17 07:14:00,
2013-04-17 03:19:00,32.3,30.0,30.40,North,360,0.0,6.0,91,0.00,,---,0.00,VWS V14.01,2013-04-17 07:19:00,
2013-04-17 03:24:00,32.5,30.2,30.40,North,360,0.0,6.0,91,0.00,,---,0.00,VWS V14.01,2013-04-17 07:24:00,
2013-04-17 03:29:00,32.6,30.5,30.40,North,360,0.0,6.0,92,0.00,,---,0.00,VWS V14.01,2013-04-17 07:29:00,
2013-04-17 03:34:00,32.6,30.5,30.40,North,360,1.0,6.0,92,0.00,,---,0.00,VWS V14.01,2013-04-17 07:34:00,
2013-04-17 03:39:00,32.9,30.8,30.40,North,360,0.0,6.0,92,0.00,,---,0.00,VWS V14.01,2013-04-17 07:39:00,
2013-04-17 03:44:00,33.0,30.7,30.40,North,360,1.0,6.0,91,0.00,,---,0.00,VWS V14.01,2013-04-17 07:44:00,
2013-04-17 03:49:00,33.0,30.7,30.40,North,360,0.0,6.0,91,0.00,,---,0.00,VWS V14.01,2013-04-17 07:49:00,
2013-04-17 03:54:00,32.6,30.0,30.40,North,360,2.0,6.0,90,0.00,,---,0.00,VWS V14.01,2013-04-17 07:54:00,
2013-04-17 03:59:00,32.3,29.7,30.40,North,360,0.0,6.0,90,0.00,,---,0.00,VWS V14.01,2013-04-17 07:59:00,
2013-04-17 04:04:00,31.9,29.3,30.40,North,360,0.0,0.0,90,0.00,,---,0.00,VWS V14.01,2013-04-17 08:04:00,
2013-04-17 04:09:00,31.8,29.5,30.40,North,360,0.0,1.0,91,0.00,,---,0.00,VWS V14.01,2013-04-17 08:09:00,
2013-04-17 04:14:00,31.7,29.4,30.40,North,360,0.0,1.0,91,0.00,,---,0.00,VWS V14.01,2013-04-17 08:14:00,
2013-04-17 04:19:00,31.6,29.3,30.40,North,360,0.0,1.0,91,0.00,,---,0.00,VWS V14.01,2013-04-17 08:19:00,
2013-04-17 04:24:00,31.4,29.1,30.41,North,360,0.0,2.0,91,0.00,,---,0.00,VWS V14.01,2013-04-17 08:24:00,
2013-04-17 04:29:00,31.6,29.5,30.41,North,360,0.0,2.0,92,0.00,,---,0.00,VWS V14.01,2013-04-17 08:29:00,
2013-04-17 04:34:00,32.1,30.0,30.41,North,360,3.0,3.0,92,0.00,,---,0.00,VWS V14.01,2013-04-17 08:34:00,
2013-04-17 04:39:00,32.6,30.3,30.41,North,360,2.0,5.0,91,0.00,,---,0.00,VWS V14.01,2013-04-17 08:39:00,
2013-04-17 04:44:00,32.9,30.6,30.40,North,360,4.0,5.0,91,0.00,,---,0.00,VWS V14.01,2013-04-17 08:44:00,
2013-04-17 04:49:00,33.1,30.5,30.41,North,360,4.0,6.0,90,0.00,,---,0.00,VWS V14.01,2013-04-17 08:49:00,
2013-04-17 04:54:00,33.2,30.3,30.40,North,360,2.0,6.0,89,0.00,,---,0.00,VWS V14.01,2013-04-17 08:54:00,
2013-04-17 04:59:00,33.2,30.3,30.41,North,360,2.0,6.0,89,0.00,,---,0.00,VWS V14.01,2013-04-17 08:59:00,
2013-04-17 05:04:00,33.2,30.3,30.40,North,360,3.0,6.0,89,0.00,,---,0.00,VWS V14.01,2013-04-17 09:04:00,
2013-04-17 05:09:00,33.2,30.3,30.41,North,360,5.0,6.0,89,0.00,,---,0.00,VWS V14.01,2013-04-17 09:09:00,
2013-04-17 05:14:00,33.1,29.9,30.40,North,360,3.0,6.0,88,0.00,,---,0.00,VWS V14.01,2013-04-17 09:14:00,
2013-04-17 05:19:00,33.1,29.9,30.41,North,360,3.0,6.0,88,0.00,,---,0.00,VWS V14.01,2013-04-17 09:19:00,